Location: SE Lincoln, NE
(40.7805°N, 96.6275°W)
Time: 03:08:50
(UTC-06:00)

Daily predictions for brighter satellites

Satellite Brightness Start Highest point End
(mag) Time Altitude Azimuth Time Altitude Azimuth Time Altitude Azimuth
CZ-4C R/B 3.5 04:35:13 34° ENE 04:35:13 34° ENE 04:38:39 10° NE
Cosmos 1980 Rocket 3.8 04:42:27 25° SSE 04:42:27 25° SSE 04:44:41 10° SSE
USA 267 3.3 04:40:06 10° NE 04:45:49 70° NE 04:45:49 70° NE
Nadezhda 4 Rocket 4.1 04:58:38 10° S 05:04:43 72° E 05:10:49 10° NNE
SeaSat 1 2.5 05:06:44 10° NNE 05:11:24 72° E 05:11:24 72° E
Meteor 2-20 Rocket 4.4 05:06:23 10° S 05:12:29 83° E 05:18:36 10° N
Cosmos 1025 Rocket 4.5 05:13:21 26° NNE 05:15:02 35° ENE 05:18:59 10° SE
Meteor 2-4 Rocket 4.0 05:19:36 50° SSW 05:19:36 50° SSW 05:23:49 10° S
USA 234 3.7 05:14:44 10° ESE 05:21:04 54° NNE 05:23:43 34° NNW
SL-16 R/B 2.4 05:20:23 43° N 05:22:14 70° ENE 05:27:53 10° SSE
Cosmos 2322 Rocket 2.3 05:24:12 41° N 05:26:15 73° ENE 05:31:55 10° SSE
Okean 2 4.3 05:25:29 35° NNE 05:26:44 47° E 05:30:42 10° SSE
Cosmos 192 4.2 05:26:47 80° SSW 05:27:04 88° WNW 05:32:01 10° NNE
COSMO-SKYMED 1 2.6 05:34:11 10° SSE 05:38:31 78° ENE 05:40:01 40° N
EO 1 Del DPAF 3.5 05:36:38 10° SSE 05:40:25 66° ENE 05:41:18 48° NNE
NOAA 6 3.9 05:40:11 10° NNE 05:45:21 86° WNW 05:50:30 10° SSW
Timation 2 Rocket 4.4 05:45:36 38° W 05:47:20 45° WNW 05:53:53 10° NNE
Cosmos 1092 Rocket 3.8 05:41:51 10° SSW 05:47:57 76° W 05:54:08 10° N
Cosmos 773 Rocket 4.1 05:49:24 47° WNW 05:49:24 47° WNW 05:54:23 10° N
Cosmos 1500 3.0 05:46:15 10° S 05:50:06 87° W 05:53:57 10° N
ATLAS CENTAUR R/B 3.5 05:49:38 10° S 05:52:42 24° ESE 05:55:45 10° ENE
Okean 1 Rocket 3.0 05:48:51 10° SSW 05:53:10 62° W 05:57:34 10° N
Landsat 4 4.4 05:49:39 10° S 05:52:22 39° SW 05:52:22 39° SW
BREEZE-M DEB (TANK) 2.4 05:53:42 60° ESE 05:53:42 60° ESE 05:56:46 10° ENE
Meteor 1-5 Rocket 4.3 05:48:34 10° SSW 05:53:43 44° WNW 05:58:49 10° N
Feng Yun 1-1 Rocket 4.2 05:48:11 10° N 05:53:58 76° WNW 05:59:35 10° SSW
Cosmos 389 Rocket 4.4 05:53:18 10° SSE 05:56:33 32° E 05:59:48 10° NNE
Cosmos 2195 Rocket 4.5 05:50:37 10° S 05:56:56 89° E 06:03:14 10° N
Meteor 2-11 Rocket 4.4 05:51:40 10° N 05:57:48 88° W 06:03:53 10° S
Okean-O 2.5 05:53:42 10° N 05:58:07 67° WNW 06:02:30 10° SSW
Cosmos 2026 Rocket 4.1 05:53:12 10° S 05:59:28 82° E 06:05:51 10° N
DMSP B5D1-3 4.5 06:00:21 10° SSE 06:05:31 88° WSW 06:10:43 10° NNW
Cosmos 1680 Rocket 3.4 06:00:38 10° SSW 06:05:50 83° WNW 06:11:05 10° NNE
Cosmos 1271 Rocket 4.3 06:05:23 10° SSE 06:08:50 36° E 06:12:18 10° NNE
Cosmos 1655 Rocket 4.3 06:04:15 10° S 06:10:26 71° E 06:16:43 10° NNE
Cosmos 1553 Rocket 4.5 06:05:01 10° N 06:11:10 61° E 06:17:13 10° SSE
Cosmos 1892 Rocket 4.0 06:08:56 10° N 06:13:16 61° E 06:17:34 10° SSE
Cosmos 1627 Rocket 4.5 06:09:04 10° SSW 06:15:23 69° W 06:21:47 10° N
IDEFIX/ARIANE 42P 2.6 06:15:06 10° N 06:20:12 55° WNW 06:25:17 10° SSW
Cosmos 2360 Rocket 2.2 06:15:36 11° NNW 06:21:13 85° ENE 06:26:53 10° SSE
BREEZE-M DEB (TANK) 2.4 06:20:59 40° NW 06:21:24 45° NNW 06:25:09 10° NE
SWAS 4.4 06:17:30 10° SSW 06:21:49 87° WNW 06:26:10 10° NNE
CZ-4C R/B 3.2 06:20:27 23° WNW 06:21:55 26° NW 06:26:58 10° NNE
Cosmos 1666 3.1 06:18:21 10° S 06:22:08 63° E 06:25:55 10° NNE
Cosmos 2333 Rocket 4.2 06:17:50 10° N 06:22:24 23° NE 06:26:53 10° ESE
Cosmos 1371 Rocket 4.3 06:19:34 10° NNW 06:24:47 67° ENE 06:29:55 10° SSE
COSMOS 2428 3.9 06:20:26 10° N 06:25:51 42° ENE 06:31:15 10° SE
Cosmos 1066 Rocket 4.0 06:21:14 10° NNW 06:26:35 70° W 06:31:59 10° S
SKYMED 2 4.4 06:22:52 10° SSW 06:26:41 30° W 06:28:37 21° NW
Cosmos 1428 Rocket 4.5 06:21:40 10° S 06:27:58 82° W 06:34:17 10° N
Cosmos 2219 Rocket 3.9 06:24:11 10° N 06:29:06 29° NE 06:34:00 10° ESE
USA 267 4.0 06:23:29 10° NE 06:29:09 33° NNW 06:33:11 17° WNW
Thor Agena Rocket 3.5 06:31:49 10° SSE 06:36:52 87° WSW 06:41:59 10° NNW
APEX 4.0 06:37:31 11° WSW 06:40:26 29° NW 06:44:17 10° N
CZ-4 R/B 2.7 06:37:01 10° NNE 06:41:06 47° E 06:45:11 10° S
Cosmos 1184 Rocket 4.0 06:41:29 19° WNW 06:42:38 23° W 06:45:19 10° SSW
Cosmos 1455 Rocket 3.0 06:43:03 10° SSW 06:47:30 73° W 06:51:58 10° N
SAR-Lupe-3 4.5 06:44:51 10° S 06:48:25 77° WSW 06:52:01 10° NNW
Cosmos 2237 Rocket 4.2 06:44:10 10° N 06:48:36 23° NE 06:53:00 10° ESE
SeaSat 1 3.9 06:45:32 10° N 06:48:40 17° NW 06:51:13 12° W
ATLAS 5 CENTAUR R/B 3.7 06:43:51 10° NNW 06:49:12 34° NE 06:55:02 10° ESE
CZ-2C R/B 2.9 06:47:02 10° N 06:51:22 34° WNW 06:55:34 10° SW
Lacrosse 5 2.9 06:46:43 10° SSW 06:51:35 49° SE 06:56:29 10° NE
Cosmos 1544 Rocket 3.6 06:47:41 10° SSW 06:52:04 59° W 06:56:28 10° N
Cosmos 1025 Rocket 4.5 06:50:19 13° NW 06:52:20 18° W 06:55:11 10° SW
BREEZE-M DEB (TANK) 2.9 06:48:34 12° WNW 06:54:10 44° NNE 06:56:27 10° E
CSL-04 Debris 4.3 06:49:17 10° NNE 06:54:46 82° ESE 07:00:14 10° SSW
Cosmos 1975 3.8 06:52:25 10° SW 06:55:47 26° WNW 06:59:11 10° NNW
Cosmos 2219 3.6 06:55:28 10° SSW 07:01:04 69° ESE 07:06:42 10° NNE
Cosmos 2056 Rocket 3.4 06:56:47 10° NNW 07:01:54 73° WSW 07:07:01 10° S
USA 234 3.7 06:57:50 10° SSE 07:04:05 47° SW 07:10:23 10° WNW
SL-16 R/B 3.8 07:02:24 10° WNW 07:05:40 16° W 07:08:55 10° SW
Meteor 2-9 Rocket 4.4 07:00:12 10° S 07:06:04 89° ESE 07:11:52 10° N
CSL-04 Rocket 3.7 07:03:52 10° N 07:09:24 68° WNW 07:14:52 10° SSW
Cosmos 2322 Rocket 3.8 07:06:30 10° WNW 07:09:35 15° W 07:12:39 10° SW
Cosmos 1743 3.8 07:09:40 10° SW 07:12:50 24° WNW 07:16:00 10° NNW
SMAP 3.1 07:09:09 10° N 07:13:44 58° WNW 07:18:17 10° SSW
Cosmos 1452 Rocket 4.2 07:09:02 10° NNW 07:14:16 58° ENE 07:19:28 10° SSE
